Regional Weather Roundup
Issued by NWS

Home | Current Version | Previous Version | Text Only | Print | Product List | Glossary On
Versions: 1 2 3 4 5 6 7 8 9 10 11 12 13 14 15 16 17 18 19 20 21 22 23 24 25 26 27 28 29 30 31 32 33 34 35 36 37 38 39 40 41 42 43 44 45 46 47 48 49 50
000
ASUS43 KFSD 240602
RWRSD

WEATHER ROUNDUP FOR SOUTH DAKOTA
NATIONAL WEATHER SERVICE SIOUX FALLS SD
100 AM CDT THU MAY 24 2018

NOTE: "FAIR" INDICATES FEW OR NO CLOUDS BELOW 12,000 FEET WITH NO
SIGNIFICANT WEATHER AND/OR OBSTRUCTIONS TO VISIBILITY.


SDZ001>005-009-010-012>017-240700-
NORTHWEST AND NORTH CENTRAL SOUTH DAKOTA

CITY           SKY/WX    TMP DP  RH WIND       PRES   REMARKS
BUFFALO          N/A     61  55  81 SE8       29.79R
FAITH            N/A     62  54  74 SE15G26   29.85F
MOBRIDGE       CLOUDY    73  60  63 SW18G32   29.86R
$$

SDZ012>016-024>037-041>051-057-063-072>074-240700-
SOUTHWEST AND SOUTH CENTRAL SOUTH DAKOTA

CITY           SKY/WX    TMP DP  RH WIND       PRES   REMARKS
RAPID CTY ARPT MOCLDY    61  46  57 W8        29.90R
PIERRE         CLOUDY    65  59  81 W10       29.89R
CUSTER         PTCLDY    48  39  71 NW3       30.02R
ELLSWORTH AFB  MOCLDY    63  46  54 SW10      29.89R
PHILIP         CLOUDY    60  59  96 CALM      29.88F
PINE RIDGE     CLOUDY    58  52  80 E7        29.95R
SPEARFISH      FAIR      63  45  51 S13       29.91R
WINNER         LGT RAIN  71  56  58 SW20G26   29.96R
$$

SDZ004>011-016>023-039-040-240700-
NORTHEAST SOUTH DAKOTA

CITY           SKY/WX    TMP DP  RH WIND       PRES   REMARKS
ABERDEEN       MOCLDY    71  61  70 SE13      29.89S
WATERTOWN      PTCLDY    71  62  73 SE8       29.94S
BROOKINGS      CLOUDY    71  61  70 SE8       29.98R
SISSETON         N/A     67  65  93 S6        29.93R
$$

SDZ017-020-022-023-036>040-048>070-240700-
SOUTHEAST SOUTH DAKOTA

CITY           SKY/WX    TMP DP  RH WIND       PRES   REMARKS
SIOUX FALLS    CLOUDY    76  61  59 S15       29.97R
HURON          CLOUDY    71  62  73 SE9       29.90S
CHAMBERLAIN    CLOUDY    73  64  73 S14       29.90S
MITCHELL       CLOUDY    72  60  66 SE9       29.92R
YANKTON        CLOUDY    72  62  71 SE9       29.97R
$$

ABBREVIATIONS USED IN REMARKS
   TC - TEMPERATURE IN CELSIUS
  WCI - WIND CHILL INDEX
   HX - HEAT INDEX
  VSB - VISIBILITY





USA.gov is the U.S. government's official web portal to all federal, state and local government web resources and services.